,,PA_Meas_PMT16A,,PR_Meas_QMR101_102,,RH_Meas_QMH101,,SR_Meas_QMS101,,TA_Meas_QMH101,,GenWind,,GenWind,
time,status,PA,status,PR,status,RH,status,SR,status,TA,status,DirAvg,status,SpdAvg,
2014-03-07, 07:13:04,VALID,918.618,VALID,0,VALID,81.136,VALID,60.5968,VALID,18.6333,VALID,146,VALID,2.1332,
2014-03-07, 07:14:04,VALID,918.622,VALID,0,VALID,81.7535,VALID,62.8531,VALID,18.5929,VALID,152,VALID,1.31562,
2014-03-07, 07:15:04,VALID,918.687,VALID,0,VALID,81.6315,VALID,65.4317,VALID,18.6304,VALID,137,VALID,2.37656,
2014-03-07, 07:16:04,VALID,918.639,VALID,0,VALID,81.8069,VALID,68.44,VALID,18.6304,VALID,102,VALID,2.09141,
2014-03-07, 07:17:04,VALID,918.656,VALID,0,VALID,81.7306,VALID,71.0186,VALID,18.6694,VALID,133,VALID,1.85039,
2014-03-07, 07:18:04,VALID,918.696,VALID,0,VALID,81.7611,VALID,73.5972,VALID,18.6889,VALID,130,VALID,2.16055,
2014-03-07, 07:19:04,VALID,918.676,VALID,0,VALID,81.7764,VALID,76.4981,VALID,18.7084,VALID,133,VALID,2.08555,
2014-03-07, 07:20:04,VALID,918.708,VALID,0,VALID,81.6468,VALID,78.9692,VALID,18.7878,VALID,138,VALID,1.5875,
2014-03-07, 07:21:04,VALID,918.695,VALID,0,VALID,81.4486,VALID,81.4404,VALID,18.8268,VALID,144,VALID,2.49297,
2014-03-07, 07:22:04,VALID,918.735,VALID,0,VALID,81.5858,VALID,84.3413,VALID,18.7864,VALID,151,VALID,1.62969,
2014-03-07, 07:23:04,VALID,918.735,VALID,0,VALID,81.6697,VALID,87.0273,VALID,18.7864,VALID,125,VALID,3.03203,
2014-03-07, 07:24:04,VALID,918.728,VALID,0,VALID,82.0203,VALID,89.391,VALID,18.7655,VALID,131,VALID,1.91328,
2014-03-07, 07:25:04,VALID,918.757,VALID,0,VALID,82.371,VALID,92.0771,VALID,18.7669,VALID,134,VALID,2.10547,
2014-03-07, 07:26:04,VALID,918.783,VALID,0,VALID,81.8602,VALID,94.5482,VALID,18.7878,VALID,137,VALID,2.83086,
2014-03-07, 07:27:04,VALID,918.809,VALID,0,VALID,82.1652,VALID,97.0194,VALID,18.7669,VALID,150,VALID,1.50391,
2014-03-07, 07:28:04,VALID,918.802,VALID,0,VALID,81.9822,VALID,98.9533,VALID,18.7878,VALID,157,VALID,2.18828,
2014-03-07, 07:29:04,VALID,918.835,VALID,0,VALID,82.1804,VALID,101.21,VALID,18.8073,VALID,136,VALID,1.85234,
2014-03-07, 07:30:04,VALID,918.831,VALID,0,VALID,82.1576,VALID,104.433,VALID,18.8254,VALID,138,VALID,1.58477,
2014-03-07, 07:31:04,VALID,918.837,VALID,0,VALID,82.5006,VALID,107.119,VALID,18.8853,VALID,61,VALID,0.686719,
2014-03-07, 07:32:04,VALID,918.84,VALID,0,VALID,82.1957,VALID,109.697,VALID,18.8853,VALID,142,VALID,1.34609,
2014-03-07, 07:33:04,VALID,918.841,VALID,0,VALID,82.1042,VALID,112.921,VALID,18.8853,VALID,145,VALID,2.15195,
2014-03-07, 07:34:04,VALID,918.865,VALID,0,VALID,82.0813,VALID,116.036,VALID,18.9048,VALID,145,VALID,1.74141,
2014-03-07, 07:35:04,VALID,918.897,VALID,0,VALID,82.1271,VALID,119.367,VALID,18.9452,VALID,127,VALID,1.56094,
2014-03-07, 07:36:04,VALID,918.908,VALID,0,VALID,82.249,VALID,121.946,VALID,18.9229,VALID,94,VALID,1.03437,
2014-03-07, 07:37:04,VALID,918.946,VALID,0,VALID,82.5235,VALID,124.739,VALID,18.9633,VALID,113,VALID,1.58008,
2014-03-07, 07:38:04,VALID,918.929,VALID,0,VALID,82.4244,VALID,128.392,VALID,18.9633,VALID,132,VALID,1.53594,
2014-03-07, 07:39:04,VALID,918.935,VALID,0,VALID,81.8298,VALID,129.896,VALID,19.0023,VALID,142,VALID,2.24844,
2014-03-07, 07:40:04,VALID,918.959,VALID,0,VALID,81.7383,VALID,131.723,VALID,19.0593,VALID,114,VALID,1.73164,
2014-03-07, 07:41:04,VALID,918.963,VALID,0,VALID,81.845,VALID,135.054,VALID,19.1388,VALID,117,VALID,1.20859,
2014-03-07, 07:42:04,VALID,918.961,VALID,0,VALID,81.014,VALID,137.31,VALID,19.1583,VALID,132,VALID,3.54727,
2014-03-07, 07:43:04,VALID,918.965,VALID,0,VALID,81.2351,VALID,139.781,VALID,19.2377,VALID,122,VALID,2.18516,
2014-03-07, 07:44:04,VALID,918.979,VALID,0,VALID,81.014,VALID,142.037,VALID,19.1944,VALID,128,VALID,2.32773,
2014-03-07, 07:45:04,VALID,918.97,VALID,0,VALID,81.2656,VALID,145.475,VALID,19.1749,VALID,115,VALID,2.49375,
2014-03-07, 07:46:04,VALID,919,VALID,0,VALID,81.441,VALID,149.236,VALID,19.2168,VALID,122,VALID,3.36055,
2014-03-07, 07:47:04,VALID,918.99,VALID,0,VALID,81.9441,VALID,152.566,VALID,19.2377,VALID,102,VALID,1.49844,
2014-03-07, 07:48:04,VALID,918.989,VALID,0,VALID,81.1284,VALID,154.715,VALID,19.2348,VALID,146,VALID,2.41055,
2014-03-07, 07:49:04,VALID,919.001,VALID,0,VALID,81.5705,VALID,157.831,VALID,19.3143,VALID,110,VALID,2.04336,
2014-03-07, 07:50:04,VALID,919.014,VALID,0,VALID,81.0979,VALID,162.129,VALID,19.3338,VALID,127,VALID,2.7832,
2014-03-07, 07:51:04,VALID,919.026,VALID,0,VALID,81.1818,VALID,164.6,VALID,19.3908,VALID,140,VALID,1.59766,
2014-03-07, 07:52:04,VALID,919.075,VALID,0,VALID,80.3356,VALID,166.319,VALID,19.4898,VALID,119,VALID,2.14297,
2014-03-07, 07:53:04,VALID,919.065,VALID,0,VALID,80.5033,VALID,169.757,VALID,19.5678,VALID,131,VALID,1.84258,
2014-03-07, 07:54:04,VALID,919.081,VALID,0,VALID,80.2517,VALID,174.807,VALID,19.6248,VALID,151,VALID,2.12578,
2014-03-07, 07:55:04,VALID,919.121,VALID,0,VALID,80.2212,VALID,176.526,VALID,19.7043,VALID,124,VALID,1.49023,
2014-03-07, 07:56:04,VALID,919.112,VALID,0,VALID,79.779,VALID,177.278,VALID,19.7808,VALID,127,VALID,2.09219,
2014-03-07, 07:57:04,VALID,919.145,VALID,0,VALID,79.8477,VALID,183.187,VALID,19.8408,VALID,136,VALID,1.63828,
2014-03-07, 07:58:04,VALID,919.117,VALID,0,VALID,79.4207,VALID,186.84,VALID,19.8978,VALID,133,VALID,1.15781,
2014-03-07, 07:59:04,VALID,919.136,VALID,0,VALID,79.6037,VALID,188.129,VALID,19.9968,VALID,141,VALID,0.858203,
2014-03-07, 08:00:04,VALID,919.122,VALID,0,VALID,79.1768,VALID,191.782,VALID,20.0553,VALID,140,VALID,1.10156,
2014-03-07, 08:01:04,VALID,919.149,VALID,0,VALID,79.1997,VALID,193.179,VALID,20.1544,VALID,128,VALID,1.71953,
2014-03-07, 08:02:04,VALID,919.148,VALID,0,VALID,79.0243,VALID,195.65,VALID,20.1934,VALID,118,VALID,1.47812,
2014-03-07, 08:03:04,VALID,919.119,VALID,0,VALID,77.9799,VALID,197.262,VALID,20.2504,VALID,124,VALID,2.55586,
2014-03-07, 08:04:04,VALID,919.17,VALID,0,VALID,78.4678,VALID,201.022,VALID,20.2879,VALID,123,VALID,2.01523,
2014-03-07, 08:05:04,VALID,919.129,VALID,0,VALID,77.8046,VALID,205.642,VALID,20.3269,VALID,143,VALID,2.49961,
2014-03-07, 08:06:04,VALID,919.18,VALID,0,VALID,78.6813,VALID,211.874,VALID,20.3854,VALID,114,VALID,1.24805,
2014-03-07, 08:07:04,VALID,919.161,VALID,0,VALID,78.8414,VALID,217.353,VALID,20.4244,VALID,103,VALID,0.966016,
2014-03-07, 08:08:04,VALID,919.168,VALID,0,VALID,77.8198,VALID,216.709,VALID,20.4439,VALID,141,VALID,2.0125,
2014-03-07, 08:09:04,VALID,919.221,VALID,0,VALID,78.5136,VALID,216.601,VALID,20.5024,VALID,127,VALID,1.2332,
2014-03-07, 08:10:04,VALID,919.214,VALID,0,VALID,77.7665,VALID,222.296,VALID,20.5804,VALID,146,VALID,2.05625,
2014-03-07, 08:11:04,VALID,919.251,VALID,0,VALID,77.5911,VALID,226.486,VALID,20.6585,VALID,135,VALID,1.38711,
2014-03-07, 08:12:04,VALID,919.256,VALID,0,VALID,77.3319,VALID,227.238,VALID,20.7365,VALID,169,VALID,0.583984,
2014-03-07, 08:13:04,VALID,919.274,VALID,0,VALID,76.6992,VALID,229.172,VALID,20.795,VALID,140,VALID,1.97422,
2014-03-07, 08:14:04,VALID,919.311,VALID,0,VALID,77.3624,VALID,233.577,VALID,20.8129,VALID,150,VALID,1.31055,
2014-03-07, 08:15:04,VALID,919.299,VALID,0,VALID,76.1198,VALID,236.693,VALID,20.873,VALID,164,VALID,1.6832,
2014-03-07, 08:16:04,VALID,919.366,VALID,0,VALID,75.8987,VALID,238.842,VALID,20.891,VALID,153,VALID,1.85156,
2014-03-07, 08:17:04,VALID,919.353,VALID,0,VALID,76.3638,VALID,240.561,VALID,20.8925,VALID,149,VALID,2.14492,
2014-03-07, 08:18:04,VALID,919.338,VALID,0,VALID,75.7768,VALID,241.743,VALID,20.873,VALID,136,VALID,3.17812,
2014-03-07, 08:19:04,VALID,919.346,VALID,0,VALID,76.3485,VALID,245.503,VALID,20.8714,VALID,128,VALID,2.36445,
2014-03-07, 08:20:04,VALID,919.372,VALID,0,VALID,77.1337,VALID,248.404,VALID,20.9706,VALID,160,VALID,1.58477,
2014-03-07, 08:21:04,VALID,919.352,VALID,0,VALID,76.8821,VALID,252.057,VALID,20.9885,VALID,146,VALID,1.85859,
2014-03-07, 08:22:04,VALID,919.35,VALID,0,VALID,76.5543,VALID,255.817,VALID,21.0275,VALID,132,VALID,1.81484,
2014-03-07, 08:23:04,VALID,919.345,VALID,0,VALID,76.966,VALID,259.685,VALID,21.0665,VALID,160,VALID,1.26992,
2014-03-07, 08:24:04,VALID,919.316,VALID,0,VALID,76.0359,VALID,264.842,VALID,21.086,VALID,153,VALID,1.85469,
2014-03-07, 08:25:04,VALID,919.371,VALID,0,VALID,75.8835,VALID,268.818,VALID,21.1445,VALID,131,VALID,2.52578,
2014-03-07, 08:26:04,VALID,919.394,VALID,0,VALID,76.1122,VALID,270.967,VALID,21.125,VALID,150,VALID,1.76289,
2014-03-07, 08:27:04,VALID,919.461,VALID,0,VALID,76.6916,VALID,273.223,VALID,21.1071,VALID,155,VALID,1.56641,
2014-03-07, 08:28:04,VALID,919.442,VALID,0,VALID,77.5606,VALID,274.834,VALID,21.0876,VALID,133,VALID,1.90664,
2014-03-07, 08:29:04,VALID,919.454,VALID,0,VALID,77.1413,VALID,276.339,VALID,21.1055,VALID,107,VALID,1.34023,
2014-03-07, 08:30:04,VALID,919.49,VALID,0,VALID,77.37,VALID,278.487,VALID,21.1852,VALID,133,VALID,1.39492,
2014-03-07, 08:31:04,VALID,919.472,VALID,0,VALID,77.1642,VALID,281.066,VALID,21.2827,VALID,163,VALID,1.26211,
2014-03-07, 08:32:04,VALID,919.47,VALID,0,VALID,76.623,VALID,283,VALID,21.3412,VALID,148,VALID,1.10625,
2014-03-07, 08:33:04,VALID,919.465,VALID,0,VALID,76.3104,VALID,289.017,VALID,21.3006,VALID,140,VALID,1.10742,
2014-03-07, 08:34:04,VALID,919.49,VALID,0,VALID,77.7741,VALID,293.959,VALID,21.3608,VALID,122,VALID,1.06836,
2014-03-07, 08:35:04,VALID,919.493,VALID,0,VALID,76.7602,VALID,302.769,VALID,21.3803,VALID,144,VALID,1.79961,
2014-03-07, 08:36:04,VALID,919.478,VALID,0,VALID,77.614,VALID,300.943,VALID,21.3998,VALID,115,VALID,0.917578,
2014-03-07, 08:37:04,VALID,919.486,VALID,0,VALID,76.0359,VALID,309.108,VALID,21.3819,VALID,139,VALID,2.39648,
2014-03-07, 08:38:04,VALID,919.491,VALID,0,VALID,76.7983,VALID,310.397,VALID,21.3608,VALID,111,VALID,1.70039,
2014-03-07, 08:39:04,VALID,919.495,VALID,0,VALID,76.7602,VALID,315.77,VALID,21.3786,VALID,78,VALID,1.74023,
2014-03-07, 08:40:04,VALID,919.514,VALID,0,VALID,76.7907,VALID,323.183,VALID,21.4583,VALID,103,VALID,1.92305,
2014-03-07, 08:41:04,VALID,919.532,VALID,0,VALID,77.088,VALID,328.662,VALID,21.4778,VALID,102,VALID,1.66172,
2014-03-07, 08:42:04,VALID,919.571,VALID,0,VALID,76.6306,VALID,327.373,VALID,21.5754,VALID,146,VALID,1.25898,
2014-03-07, 08:43:04,VALID,919.562,VALID,0,VALID,76.1503,VALID,332.423,VALID,21.6729,VALID,162,VALID,1.51367,
2014-03-07, 08:44:04,VALID,919.553,VALID,0,VALID,74.8391,VALID,335.002,VALID,21.7721,VALID,155,VALID,2.3543,
2014-03-07, 08:45:04,VALID,919.579,VALID,0,VALID,74.9839,VALID,336.828,VALID,21.7477,VALID,174,VALID,1.49258,
2014-03-07, 08:46:04,VALID,919.561,VALID,0,VALID,75.0449,VALID,332.53,VALID,21.79,VALID,154,VALID,1.68398,
2014-03-07, 08:47:04,VALID,919.562,VALID,0,VALID,75.3041,VALID,336.398,VALID,21.7103,VALID,154,VALID,1.48594,
2014-03-07, 08:48:04,VALID,919.584,VALID,0,VALID,75.3498,VALID,342.308,VALID,21.7331,VALID,155,VALID,1.93086,
2014-03-07, 08:49:04,VALID,919.592,VALID,0,VALID,75.8301,VALID,348.324,VALID,21.7282,VALID,132,VALID,0.929297,
2014-03-07, 08:50:04,VALID,919.587,VALID,0,VALID,75.6929,VALID,348.861,VALID,21.8274,VALID,140,VALID,1.30039,
2014-03-07, 08:51:04,VALID,919.59,VALID,0,VALID,74.4732,VALID,354.771,VALID,21.8664,VALID,138,VALID,2.23516,
2014-03-07, 08:52:04,VALID,919.594,VALID,0,VALID,75.548,VALID,360.143,VALID,21.8647,VALID,109,VALID,1.87344,
2014-03-07, 08:53:04,VALID,919.572,VALID,0,VALID,74.3969,VALID,358.961,VALID,21.9233,VALID,145,VALID,1.3418,
2014-03-07, 08:54:04,VALID,919.599,VALID,0,VALID,74.3283,VALID,360.573,VALID,22.003,VALID,154,VALID,1.79688,
2014-03-07, 08:55:04,VALID,919.635,VALID,0,VALID,73.4592,VALID,365.945,VALID,22.0013,VALID,136,VALID,1.6082,
2014-03-07, 08:56:04,VALID,919.613,VALID,0,VALID,73.8252,VALID,372.069,VALID,21.9606,VALID,165,VALID,2.34727,
2014-03-07, 08:57:04,VALID,919.622,VALID,0,VALID,74.5341,VALID,373.895,VALID,22.0615,VALID,174,VALID,1.58594,
2014-03-07, 08:58:04,VALID,919.595,VALID,0,VALID,74.6409,VALID,378.623,VALID,22.1981,VALID,133,VALID,0.466016,
2014-03-07, 08:59:04,VALID,919.615,VALID,0,VALID,75.0678,VALID,379.804,VALID,22.2745,VALID,130,VALID,1.42109,
2014-03-07, 09:00:04,VALID,919.643,VALID,0,VALID,73.7489,VALID,386.251,VALID,22.4128,VALID,161,VALID,1.6418,
2014-03-07, 09:01:04,VALID,919.605,VALID,0,VALID,73.6117,VALID,393.664,VALID,22.5121,VALID,147,VALID,0.594531,
2014-03-07, 09:02:04,VALID,919.618,VALID,0,VALID,72.4606,VALID,395.598,VALID,22.5901,VALID,159,VALID,1.34375,
2014-03-07, 09:03:04,VALID,919.609,VALID,0,VALID,72.2471,VALID,399.896,VALID,22.5264,VALID,126,VALID,1.40117,
2014-03-07, 09:04:04,VALID,919.629,VALID,0,VALID,73.0857,VALID,398.392,VALID,22.6435,VALID,134,VALID,0.827344,
2014-03-07, 09:05:04,VALID,919.632,VALID,0,VALID,71.7363,VALID,399.896,VALID,22.7055,VALID,142,VALID,1.61016,
2014-03-07, 09:06:04,VALID,919.652,VALID,0,VALID,72.7579,VALID,403.119,VALID,22.6257,VALID,151,VALID,1.35352,
2014-03-07, 09:07:04,VALID,919.635,VALID,0,VALID,72.4072,VALID,412.574,VALID,22.6487,VALID,103,VALID,1.98633,
2014-03-07, 09:08:04,VALID,919.667,VALID,0,VALID,72.6664,VALID,412.574,VALID,22.5052,VALID,138,VALID,2.03633,
2014-03-07, 09:09:04,VALID,919.655,VALID,0,VALID,73.9776,VALID,417.087,VALID,22.4662,VALID,121,VALID,1.65625,
2014-03-07, 09:10:04,VALID,919.667,VALID,0,VALID,72.7808,VALID,418.161,VALID,22.5103,VALID,137,VALID,2.31523,
2014-03-07, 09:11:04,VALID,919.667,VALID,0,VALID,73.3754,VALID,417.516,VALID,22.3703,VALID,132,VALID,1.67695,
2014-03-07, 09:12:04,VALID,919.643,VALID,0,VALID,74.092,VALID,426.219,VALID,22.3737,VALID,111,VALID,1.78398,
2014-03-07, 09:13:04,VALID,919.64,VALID,0,VALID,73.9014,VALID,432.128,VALID,22.3525,VALID,109,VALID,1.45703,
2014-03-07, 09:14:04,VALID,919.645,VALID,0,VALID,73.0476,VALID,432.558,VALID,22.4696,VALID,151,VALID,1.19336,
2014-03-07, 09:15:04,VALID,919.633,VALID,0,VALID,72.979,VALID,445.236,VALID,22.6257,VALID,157,VALID,1.35078,
2014-03-07, 09:16:04,VALID,919.634,VALID,0,VALID,72.0565,VALID,447.492,VALID,22.686,VALID,153,VALID,1.18945,
2014-03-07, 09:17:04,VALID,919.639,VALID,0,VALID,71.3704,VALID,450.823,VALID,22.6452,VALID,127,VALID,2.62656,
2014-03-07, 09:18:04,VALID,919.655,VALID,0,VALID,73.0781,VALID,458.666,VALID,22.5655,VALID,125,VALID,1.81484,
2014-03-07, 09:19:04,VALID,919.663,VALID,0,VALID,73.4974,VALID,458.129,VALID,22.5281,VALID,91,VALID,1.17266,
2014-03-07, 09:20:04,VALID,919.673,VALID,0,VALID,73.5507,VALID,451.897,VALID,22.6257,VALID,127,VALID,1.54492,
2014-03-07, 09:21:04,VALID,919.679,VALID,0,VALID,73.4592,VALID,455.121,VALID,22.7216,VALID,97,VALID,1.17227,
2014-03-07, 09:22:04,VALID,919.687,VALID,0,VALID,72.918,VALID,452.112,VALID,22.9185,VALID,101,VALID,1.08594,
2014-03-07, 09:23:04,VALID,919.71,VALID,0,VALID,70.7377,VALID,451.038,VALID,22.9575,VALID,170,VALID,1.42344,
2014-03-07, 09:24:04,VALID,919.661,VALID,0,VALID,71.8431,VALID,450.716,VALID,22.8582,VALID,167,VALID,1.93555,
2014-03-07, 09:25:04,VALID,919.7,VALID,0,VALID,71.0426,VALID,467.262,VALID,22.8209,VALID,157,VALID,2.26445,
2014-03-07, 09:26:04,VALID,919.709,VALID,0,VALID,71.7745,VALID,477.361,VALID,22.7411,VALID,135,VALID,1.19062,
2014-03-07, 09:27:04,VALID,919.718,VALID,0,VALID,72.2319,VALID,476.287,VALID,22.9415,VALID,171,VALID,1.03984,
2014-03-07, 09:28:04,VALID,919.732,VALID,0,VALID,71.9346,VALID,480.262,VALID,22.9575,VALID,125,VALID,0.645312,
2014-03-07, 09:29:04,VALID,919.717,VALID,0,VALID,70.8749,VALID,487.568,VALID,23.1562,VALID,142,VALID,0.829687,
2014-03-07, 09:30:04,VALID,919.697,VALID,0,VALID,71.4771,VALID,484.989,VALID,23.2502,VALID,90,VALID,1.23633,
2014-03-07, 09:31:04,VALID,919.732,VALID,0,VALID,72.1099,VALID,483.915,VALID,23.3301,VALID,147,VALID,1.28711,
2014-03-07, 09:32:04,VALID,919.724,VALID,0,VALID,70.2803,VALID,490.147,VALID,23.3887,VALID,115,VALID,2.07383,
2014-03-07, 09:33:04,VALID,919.725,VALID,0,VALID,68.9767,VALID,490.576,VALID,23.3319,VALID,157,VALID,1.67305,
2014-03-07, 09:34:04,VALID,919.716,VALID,0,VALID,70.2345,VALID,486.171,VALID,23.3709,VALID,144,VALID,2.10977,
2014-03-07, 09:35:04,VALID,919.701,VALID,0,VALID,69.4951,VALID,496.808,VALID,23.4863,VALID,181,VALID,1.30938,
2014-03-07, 09:36:04,VALID,919.727,VALID,0,VALID,69.6399,VALID,503.899,VALID,23.6779,VALID,161,VALID,0.842578,
2014-03-07, 09:37:04,VALID,919.707,VALID,0,VALID,69.213,VALID,509.593,VALID,23.7169,VALID,133,VALID,0.543359,
2014-03-07, 09:38:04,VALID,919.697,VALID,0,VALID,68.3668,VALID,515.395,VALID,23.8163,VALID,123,VALID,1.13164,
2014-03-07, 09:39:04,VALID,919.708,VALID,0,VALID,68.1228,VALID,519.8,VALID,23.6992,VALID,168,VALID,2.43125,
2014-03-07, 09:40:04,VALID,919.713,VALID,0,VALID,68.4583,VALID,515.932,VALID,23.662,VALID,180,VALID,1.40781,
2014-03-07, 09:41:04,VALID,919.707,VALID,0,VALID,69.3273,VALID,516.255,VALID,23.5998,VALID,161,VALID,1.57227,
2014-03-07, 09:42:04,VALID,919.745,VALID,0,VALID,67.0479,VALID,511.42,VALID,23.5803,VALID,173,VALID,1.77969,
2014-03-07, 09:43:04,VALID,919.732,VALID,0,VALID,67.6273,VALID,509.164,VALID,23.4809,VALID,214,VALID,1.79219,
2014-03-07, 09:44:04,VALID,919.754,VALID,0,VALID,68.2829,VALID,520.767,VALID,23.543,VALID,186,VALID,1.85156,
2014-03-07, 09:45:04,VALID,919.75,VALID,0,VALID,68.8394,VALID,528.825,VALID,23.6211,VALID,106,VALID,2.24102,
2014-03-07, 09:46:04,VALID,919.761,VALID,0,VALID,67.6197,VALID,519.478,VALID,23.6584,VALID,212,VALID,1.16523,
2014-03-07, 09:47:04,VALID,919.757,VALID,0,VALID,67.1928,VALID,526.247,VALID,23.7578,VALID,198,VALID,1.77461,
2014-03-07, 09:48:04,VALID,919.781,VALID,0,VALID,69.0986,VALID,530.759,VALID,23.8163,VALID,166,VALID,1.74023,
2014-03-07, 09:49:04,VALID,919.787,VALID,0,VALID,68.7403,VALID,535.164,VALID,23.795,VALID,174,VALID,1.93984,
2014-03-07, 09:50:04,VALID,919.766,VALID,0,VALID,67.917,VALID,533.23,VALID,23.8163,VALID,140,VALID,1.97109,
2014-03-07, 09:51:04,VALID,919.768,VALID,0,VALID,68.8547,VALID,536.346,VALID,23.8358,VALID,152,VALID,1.30938,
2014-03-07, 09:52:04,VALID,919.762,VALID,0,VALID,67.5587,VALID,546.983,VALID,23.8944,VALID,113,VALID,1.08164,
2014-03-07, 09:53:04,VALID,919.761,VALID,0,VALID,68.1915,VALID,530.652,VALID,23.992,VALID,112,VALID,0.283203,
2014-03-07, 09:54:04,VALID,919.786,VALID,0,VALID,68.1457,VALID,529.685,VALID,24.0115,VALID,135,VALID,1.94297,
2014-03-07, 09:55:04,VALID,919.819,VALID,0,VALID,67.4977,VALID,540.751,VALID,23.9725,VALID,169,VALID,1.51445,
2014-03-07, 09:56:04,VALID,919.753,VALID,0,VALID,66.5753,VALID,534.627,VALID,23.8554,VALID,215,VALID,1.70391,
2014-03-07, 09:57:04,VALID,919.77,VALID,0,VALID,67.9018,VALID,548.38,VALID,23.7968,VALID,167,VALID,1.975,
2014-03-07, 09:58:04,VALID,919.755,VALID,0,VALID,68.6184,VALID,567.074,VALID,23.7364,VALID,149,VALID,2.23359,
2014-03-07, 09:59:04,VALID,919.777,VALID,0,VALID,67.856,VALID,573.628,VALID,23.6992,VALID,148,VALID,1.78008,
2014-03-07, 10:00:04,VALID,919.743,VALID,0,VALID,68.8547,VALID,579.43,VALID,23.6992,VALID,134,VALID,0.748438,
2014-03-07, 10:01:04,VALID,919.732,VALID,0,VALID,68.3211,VALID,573.628,VALID,23.8145,VALID,162,VALID,2.49727,
2014-03-07, 10:02:04,VALID,919.75,VALID,0,VALID,69.8381,VALID,598.125,VALID,23.9139,VALID,84,VALID,2.02734,
2014-03-07, 10:03:04,VALID,919.755,VALID,0,VALID,70.0211,VALID,577.066,VALID,24.0878,VALID,57,VALID,0.919531,
2014-03-07, 10:04:04,VALID,919.774,VALID,0,VALID,67.6502,VALID,580.719,VALID,24.2263,VALID,168,VALID,1.70195,
2014-03-07, 10:05:04,VALID,919.747,VALID,0,VALID,68.8394,VALID,583.298,VALID,24.3239,VALID,189,VALID,1.62695,
2014-03-07, 10:06:04,VALID,919.794,VALID,0,VALID,68.2829,VALID,589.852,VALID,24.4216,VALID,161,VALID,1.48828,
2014-03-07, 10:07:04,VALID,919.762,VALID,0,VALID,67.1547,VALID,588.133,VALID,24.3435,VALID,109,VALID,1.47578,
2014-03-07, 10:08:04,VALID,919.772,VALID,0,VALID,67.5053,VALID,590.711,VALID,24.3044,VALID,106,VALID,1.85586,
2014-03-07, 10:09:04,VALID,919.772,VALID,0,VALID,67.269,VALID,598.125,VALID,24.3648,VALID,101,VALID,1.55117,
2014-03-07, 10:10:04,VALID,919.767,VALID,0,VALID,68.8242,VALID,603.819,VALID,24.2654,VALID,145,VALID,2.22734,
2014-03-07, 10:11:04,VALID,919.763,VALID,0,VALID,66.5448,VALID,609.299,VALID,24.2263,VALID,137,VALID,1.58242,
2014-03-07, 10:12:04,VALID,919.777,VALID,0,VALID,66.4762,VALID,618.646,VALID,24.1641,VALID,138,VALID,1.54258,
2014-03-07, 10:13:04,VALID,919.788,VALID,0,VALID,66.4686,VALID,613.274,VALID,24.086,VALID,149,VALID,2.22813,
2014-03-07, 10:14:04,VALID,919.777,VALID,0,VALID,67.0937,VALID,626.274,VALID,24.1659,VALID,99,VALID,1.82227,
2014-03-07, 10:15:04,VALID,919.774,VALID,0,VALID,66.6515,VALID,637.878,VALID,24.2245,VALID,129,VALID,0.9,
2014-03-07, 10:16:04,VALID,919.772,VALID,0,VALID,66.3771,VALID,636.159,VALID,24.4197,VALID,126,VALID,1.19219,
2014-03-07, 10:17:04,VALID,919.764,VALID,0,VALID,65.9959,VALID,639.275,VALID,24.5368,VALID,177,VALID,1.13008,
2014-03-07, 10:18:04,VALID,919.745,VALID,0,VALID,64.3416,VALID,645.614,VALID,24.654,VALID,170,VALID,1.31562,
2014-03-07, 10:19:04,VALID,919.802,VALID,0,VALID,62.9847,VALID,631.217,VALID,24.5759,VALID,148,VALID,2.9293,
2014-03-07, 10:20:04,VALID,919.764,VALID,0,VALID,64.8143,VALID,644.002,VALID,24.4197,VALID,131,VALID,2.65625,
2014-03-07, 10:21:04,VALID,919.782,VALID,0,VALID,64.0977,VALID,627.564,VALID,24.2245,VALID,173,VALID,4.55547,
2014-03-07, 10:22:04,VALID,919.758,VALID,0,VALID,65.8892,VALID,603.712,VALID,24.0878,VALID,141,VALID,2.59922,
2014-03-07, 10:23:04,VALID,919.761,VALID,0,VALID,66.2627,VALID,630.894,VALID,24.0878,VALID,142,VALID,2.43125,
2014-03-07, 10:24:04,VALID,919.786,VALID,0,VALID,68.8776,VALID,625.63,VALID,24.1464,VALID,116,VALID,2.60156,
2014-03-07, 10:25:04,VALID,919.764,VALID,0,VALID,66.9641,VALID,635.3,VALID,24.0878,VALID,151,VALID,2.85039,
2014-03-07, 10:26:04,VALID,919.792,VALID,0,VALID,66.0569,VALID,648.73,VALID,24.1464,VALID,149,VALID,2.38242,
2014-03-07, 10:27:04,VALID,919.767,VALID,0,VALID,66.6591,VALID,661.945,VALID,24.2635,VALID,149,VALID,1.25352,
2014-03-07, 10:28:04,VALID,919.749,VALID,0,VALID,67.6502,VALID,663.879,VALID,24.4783,VALID,89,VALID,0.763672,
2014-03-07, 10:29:04,VALID,919.761,VALID,0,VALID,66.9793,VALID,665.705,VALID,24.6912,VALID,100,VALID,2.475,
2014-03-07, 10:30:04,VALID,919.777,VALID,0,VALID,62.5425,VALID,653.242,VALID,24.654,VALID,163,VALID,2.21719,
2014-03-07, 10:31:04,VALID,919.774,VALID,0,VALID,64.7838,VALID,642.498,VALID,24.654,VALID,104,VALID,1.27578,
2014-03-07, 10:32:04,VALID,919.785,VALID,0,VALID,65.7901,VALID,664.738,VALID,24.6716,VALID,137,VALID,3.16016,
2014-03-07, 10:33:04,VALID,919.823,VALID,0,VALID,62.4053,VALID,666.565,VALID,24.7497,VALID,106,VALID,2.4375,
2014-03-07, 10:34:04,VALID,919.782,VALID,0,VALID,64.1282,VALID,686.764,VALID,24.7126,VALID,44,VALID,2.18516,
2014-03-07, 10:35:04,VALID,919.785,VALID,0,VALID,62.8779,VALID,676.02,VALID,24.7907,VALID,116,VALID,2.4043,
2014-03-07, 10:36:04,VALID,919.788,VALID,0,VALID,63.9681,VALID,674.301,VALID,24.6521,VALID,74,VALID,2.39258,
2014-03-07, 10:37:04,VALID,919.759,VALID,0,VALID,64.982,VALID,666.028,VALID,24.7321,VALID,73,VALID,1.27813,
2014-03-07, 10:38:04,VALID,919.82,VALID,0,VALID,64.3111,VALID,680.855,VALID,24.8083,VALID,104,VALID,1.97617,
2014-03-07, 10:39:04,VALID,919.762,VALID,0,VALID,62.3367,VALID,685.582,VALID,24.8474,VALID,144,VALID,1.06094,
2014-03-07, 10:40:04,VALID,919.803,VALID,0,VALID,63.2515,VALID,672.474,VALID,24.8492,VALID,91,VALID,2.26172,
2014-03-07, 10:41:04,VALID,919.8,VALID,0,VALID,62.1461,VALID,695.252,VALID,24.6716,VALID,144,VALID,2.57148,
2014-03-07, 10:42:04,VALID,919.789,VALID,0,VALID,64.9134,VALID,689.665,VALID,24.5545,VALID,119,VALID,2.76563,
2014-03-07, 10:43:04,VALID,919.802,VALID,0,VALID,65.508,VALID,700.731,VALID,24.5368,VALID,94,VALID,2.07578,
2014-03-07, 10:44:04,VALID,919.721,VALID,0,VALID,65.0811,VALID,690.739,VALID,24.5173,VALID,76,VALID,2.30352,
2014-03-07, 10:45:04,VALID,919.774,VALID,0,VALID,64.8295,VALID,693.747,VALID,24.654,VALID,123,VALID,0.853516,
2014-03-07, 10:46:04,VALID,919.797,VALID,0,VALID,65.5995,VALID,700.409,VALID,24.8492,VALID,78,VALID,1.87539,
2014-03-07, 10:47:04,VALID,919.755,VALID,0,VALID,62.7026,VALID,716.74,VALID,24.8492,VALID,70,VALID,1.2043,